CES5891 ZPZT-ZPPP

Flight info

Callsign CES5891
Flight time N/A
Altitude 19700
Route HX W30 MEBNA
Aircraft B737/L-SDE2E3FGHIRWXY/LB1

Departure

Time N/A
Airport ZPZT

Arrival

Time 2026-04-27 00:59
Airport Kunming Changshui International Airport (ZPPP)
Time Latitude Longitude Altitude Speed Heading
2026-04-26 23:54 27.32713 103.75298 6323 ft 0 kts 311°
2026-04-27 00:12 27.32706 103.75308 6330 ft 2 kts 313°
2026-04-27 00:12 27.32694 103.75321 6332 ft 2 kts 320°
2026-04-27 00:12 27.32679 103.75328 6331 ft 2 kts 36°
2026-04-27 00:13 27.32675 103.75324 6331 ft 0 kts 41°
2026-04-27 00:21 27.32681 103.75330 6331 ft 3 kts 41°
2026-04-27 00:21 27.32693 103.75357 6330 ft 5 kts 89°
2026-04-27 00:21 27.32672 103.75388 6332 ft 5 kts 134°
2026-04-27 00:21 27.32646 103.75418 6331 ft 5 kts 133°
2026-04-27 00:22 27.32621 103.75474 6334 ft 11 kts 90°
2026-04-27 00:22 27.32681 103.75556 6335 ft 17 kts 41°
2026-04-27 00:22 27.32783 103.75657 6336 ft 22 kts 41°
2026-04-27 00:22 27.32913 103.75783 6340 ft 27 kts 40°
2026-04-27 00:23 27.33063 103.75930 6344 ft 28 kts 41°
2026-04-27 00:23 27.33206 103.76073 6347 ft 27 kts 41°
2026-04-27 00:23 27.33339 103.76205 6353 ft 25 kts 41°
2026-04-27 00:23 27.33464 103.76329 6356 ft 23 kts 41°
2026-04-27 00:24 27.33566 103.76430 6359 ft 6 kts 41°
2026-04-27 00:24 27.33601 103.76459 6360 ft 6 kts 23°
2026-04-27 00:24 27.33644 103.76476 6354 ft 7 kts 38°
2026-04-27 00:24 27.33624 103.76508 6356 ft 6 kts 180°
2026-04-27 00:25 27.33620 103.76499 6356 ft 1 kts 256°
2026-04-27 00:25 27.33607 103.76469 6360 ft 9 kts 226°
2026-04-27 00:25 27.33598 103.76461 6357 ft 3 kts 218°
2026-04-27 00:25 27.33395 103.76264 6349 ft 76 kts 221°
2026-04-27 00:26 27.32826 103.75699 6341 ft 140 kts 221°
2026-04-27 00:26 27.31945 103.74827 6451 ft 189 kts 222°
2026-04-27 00:26 27.30962 103.73778 7153 ft 204 kts 224°
2026-04-27 00:26 27.29905 103.72756 8182 ft 196 kts 218°
2026-04-27 00:27 27.28803 103.71712 8827 ft 215 kts 221°
2026-04-27 00:27 27.27656 103.70565 9536 ft 227 kts 221°
2026-04-27 00:27 27.26441 103.69343 10206 ft 241 kts 222°
2026-04-27 00:27 27.25151 103.68049 10857 ft 256 kts 222°
2026-04-27 00:28 27.23650 103.66885 11478 ft 272 kts 199°
2026-04-27 00:28 27.21750 103.66753 12073 ft 285 kts 168°
2026-04-27 00:28 27.19909 103.67804 12275 ft 314 kts 136°
2026-04-27 00:28 27.18644 103.69902 12512 ft 339 kts 112°
2026-04-27 00:29 27.17858 103.72499 12806 ft 360 kts 107°
2026-04-27 00:29 27.17102 103.75203 13503 ft 351 kts 108°
2026-04-27 00:29 27.16339 103.77691 14931 ft 326 kts 110°
2026-04-27 00:29 27.15563 103.80057 15933 ft 324 kts 111°
2026-04-27 00:30 27.14763 103.82427 16763 ft 325 kts 111°
2026-04-27 00:30 27.13919 103.84824 17293 ft 337 kts 114°
2026-04-27 00:30 27.12866 103.87251 17622 ft 354 kts 118°
2026-04-27 00:30 27.11687 103.89747 18055 ft 367 kts 118°
2026-04-27 00:31 27.10484 103.92267 18566 ft 375 kts 118°
2026-04-27 00:31 27.09251 103.94876 19140 ft 380 kts 118°
2026-04-27 00:31 27.08019 103.97517 19614 ft 383 kts 118°
2026-04-27 00:31 27.06793 104.00168 19654 ft 381 kts 118°
2026-04-27 00:32 27.05580 104.02796 19705 ft 379 kts 118°
2026-04-27 00:32 27.04366 104.05426 19714 ft 381 kts 118°
2026-04-27 00:32 27.03021 104.07987 19698 ft 381 kts 127°
2026-04-27 00:32 27.01287 104.10230 19721 ft 379 kts 135°
2026-04-27 00:33 26.99448 104.12345 19718 ft 379 kts 135°
2026-04-27 00:33 26.97608 104.14474 19714 ft 379 kts 135°
2026-04-27 00:33 26.95783 104.16608 19718 ft 379 kts 134°
2026-04-27 00:33 26.93964 104.18753 19715 ft 379 kts 134°
2026-04-27 00:34 26.92150 104.20899 19713 ft 379 kts 134°
2026-04-27 00:34 26.90333 104.23005 19704 ft 379 kts 139°
2026-04-27 00:34 26.88110 104.24549 19717 ft 375 kts 161°
2026-04-27 00:34 26.85564 104.25067 19709 ft 373 kts 182°
2026-04-27 00:35 26.83019 104.24605 19722 ft 370 kts 199°
2026-04-27 00:35 26.80732 104.23318 19703 ft 369 kts 218°
2026-04-27 00:35 26.78739 104.21519 19715 ft 369 kts 220°
2026-04-27 00:35 26.77413 104.20269 19714 ft 369 kts 221°
2026-04-27 00:36 26.75457 104.18404 19728 ft 370 kts 221°
2026-04-27 00:36 26.73519 104.16557 19713 ft 372 kts 221°
2026-04-27 00:36 26.71543 104.14683 19711 ft 371 kts 221°
2026-04-27 00:36 26.69569 104.12822 19703 ft 371 kts 221°
2026-04-27 00:37 26.67591 104.10966 19711 ft 370 kts 220°
2026-04-27 00:37 26.65615 104.09117 19717 ft 369 kts 220°
2026-04-27 00:37 26.63660 104.07292 19714 ft 369 kts 220°
2026-04-27 00:37 26.61690 104.05454 19719 ft 368 kts 220°
2026-04-27 00:38 26.59717 104.03616 19723 ft 368 kts 220°
2026-04-27 00:38 26.57745 104.01780 19717 ft 368 kts 220°
2026-04-27 00:38 26.55774 103.99945 19722 ft 368 kts 220°
2026-04-27 00:38 26.53830 103.98137 19725 ft 368 kts 220°
2026-04-27 00:39 26.51860 103.96306 19720 ft 369 kts 220°
2026-04-27 00:39 26.49889 103.94474 19721 ft 369 kts 220°
2026-04-27 00:39 26.47912 103.92637 19722 ft 369 kts 220°
2026-04-27 00:39 26.45935 103.90801 19733 ft 369 kts 220°
2026-04-27 00:40 26.43956 103.88964 19724 ft 370 kts 220°
2026-04-27 00:40 26.41977 103.87128 19725 ft 370 kts 220°
2026-04-27 00:40 26.39994 103.85291 19737 ft 369 kts 220°
2026-04-27 00:40 26.38042 103.83481 19730 ft 370 kts 220°
2026-04-27 00:41 26.36057 103.81641 19731 ft 370 kts 220°
2026-04-27 00:41 26.34073 103.79804 19734 ft 370 kts 220°
2026-04-27 00:41 26.32091 103.77970 19737 ft 370 kts 220°
2026-04-27 00:41 26.30106 103.76133 19742 ft 370 kts 220°
2026-04-27 00:42 26.28144 103.74318 19742 ft 370 kts 220°
2026-04-27 00:42 26.26159 103.72483 19743 ft 370 kts 220°
2026-04-27 00:42 26.24171 103.70646 19737 ft 370 kts 220°
2026-04-27 00:42 26.22182 103.68808 19743 ft 370 kts 220°
2026-04-27 00:43 26.20229 103.67006 19746 ft 369 kts 220°
2026-04-27 00:43 26.18235 103.65176 19750 ft 369 kts 219°
2026-04-27 00:43 26.16074 103.63631 19753 ft 370 kts 209°
2026-04-27 00:43 26.13769 103.62331 19753 ft 371 kts 207°
2026-04-27 00:44 26.11451 103.61064 19756 ft 372 kts 207°
2026-04-27 00:44 26.09156 103.59807 19751 ft 372 kts 207°
2026-04-27 00:44 26.06835 103.58521 19754 ft 371 kts 208°
2026-04-27 00:44 26.04519 103.57222 19753 ft 371 kts 208°
2026-04-27 00:45 26.02236 103.55932 19758 ft 371 kts 208°
2026-04-27 00:45 25.99920 103.54616 19755 ft 371 kts 208°
2026-04-27 00:45 25.97621 103.53307 19760 ft 370 kts 208°
2026-04-27 00:45 25.95352 103.52013 19755 ft 371 kts 208°
2026-04-27 00:46 25.93051 103.50701 19767 ft 370 kts 208°
2026-04-27 00:46 25.90747 103.49387 19758 ft 371 kts 208°
2026-04-27 00:46 25.88482 103.48097 19763 ft 370 kts 208°
2026-04-27 00:46 25.86180 103.46785 19772 ft 371 kts 208°
2026-04-27 00:47 25.83879 103.45477 19737 ft 367 kts 208°
2026-04-27 00:47 25.81646 103.44207 19499 ft 362 kts 208°
2026-04-27 00:47 25.79423 103.42942 19265 ft 354 kts 208°
2026-04-27 00:47 25.77252 103.41707 19028 ft 346 kts 209°
2026-04-27 00:48 25.75117 103.40493 18796 ft 342 kts 209°
2026-04-27 00:48 25.73003 103.39291 18589 ft 340 kts 209°
2026-04-27 00:48 25.70927 103.38111 18306 ft 337 kts 209°
2026-04-27 00:48 25.68850 103.36931 17881 ft 335 kts 209°
2026-04-27 00:49 25.66767 103.35746 17392 ft 335 kts 209°
2026-04-27 00:49 25.64699 103.34574 16985 ft 332 kts 209°
2026-04-27 00:49 25.62650 103.33411 16613 ft 329 kts 209°
2026-04-27 00:49 25.60637 103.32270 16239 ft 327 kts 209°
2026-04-27 00:50 25.58611 103.31123 15846 ft 325 kts 209°
2026-04-27 00:50 25.54693 103.28905 15576 ft 304 kts 209°
2026-04-27 00:50 25.52866 103.27871 15501 ft 293 kts 210°
2026-04-27 00:51 25.51086 103.26865 15419 ft 282 kts 210°
2026-04-27 00:51 25.49367 103.25893 15350 ft 271 kts 210°
2026-04-27 00:51 25.47737 103.24916 15217 ft 263 kts 213°
2026-04-27 00:51 25.46182 103.23907 14997 ft 260 kts 213°
2026-04-27 00:52 25.44604 103.22876 14559 ft 266 kts 213°
2026-04-27 00:52 25.43025 103.21854 14402 ft 259 kts 213°
2026-04-27 00:52 25.41461 103.20848 14090 ft 261 kts 213°
2026-04-27 00:52 25.39891 103.19840 13743 ft 262 kts 214°
2026-04-27 00:53 25.38393 103.18690 13379 ft 261 kts 222°
2026-04-27 00:53 25.36992 103.17417 13039 ft 259 kts 222°
2026-04-27 00:53 25.35614 103.16193 12708 ft 255 kts 221°
2026-04-27 00:53 25.34243 103.15004 12554 ft 245 kts 221°
2026-04-27 00:54 25.32916 103.13855 12282 ft 242 kts 221°
2026-04-27 00:54 25.31586 103.12702 11941 ft 242 kts 221°
2026-04-27 00:54 25.30261 103.11553 11419 ft 248 kts 221°
2026-04-27 00:54 25.28892 103.10362 11101 ft 245 kts 221°
2026-04-27 00:55 25.27546 103.09203 10758 ft 244 kts 221°
2026-04-27 00:55 25.26210 103.08079 10497 ft 240 kts 220°
2026-04-27 00:55 25.24903 103.06992 10330 ft 226 kts 220°
2026-04-27 00:55 25.23737 103.06034 10248 ft 203 kts 220°
2026-04-27 00:56 25.22583 103.05104 9643 ft 208 kts 220°
2026-04-27 00:56 25.21416 103.04163 9274 ft 202 kts 220°
2026-04-27 00:56 25.20330 103.03253 9080 ft 190 kts 223°
2026-04-27 00:56 25.19379 103.02313 8837 ft 182 kts 225°
2026-04-27 00:57 25.18443 103.01375 8453 ft 180 kts 222°
2026-04-27 00:57 25.17473 103.00559 8314 ft 167 kts 221°
2026-04-27 00:57 25.16610 102.99818 8145 ft 150 kts 222°
2026-04-27 00:57 25.15836 102.99093 8058 ft 145 kts 224°
2026-04-27 00:58 25.15027 102.98367 7896 ft 151 kts 221°
2026-04-27 00:58 25.14216 102.97666 7688 ft 148 kts 219°
2026-04-27 00:58 25.13422 102.96965 7323 ft 145 kts 221°
2026-04-27 00:58 25.12664 102.96277 7055 ft 137 kts 217°
2026-04-27 00:59 25.11914 102.95634 6946 ft 136 kts 218°
2026-04-27 00:59 25.11190 102.95002 6892 ft 122 kts 218°
2026-04-27 00:59 25.10621 102.94502 6890 ft 83 kts 218°
2026-04-27 00:59 25.10288 102.94213 6892 ft 41 kts 218°
2026-04-27 01:00 25.10100 102.94039 6893 ft 29 kts 227°
2026-04-27 01:00 25.10010 102.93866 6892 ft 20 kts 246°
2026-04-27 01:00 25.09959 102.93742 6893 ft 13 kts 259°
2026-04-27 01:00 25.10000 102.93662 6893 ft 12 kts 315°
2026-04-27 01:01 25.10077 102.93672 6893 ft 12 kts 36°
2026-04-27 01:01 25.10141 102.93730 6893 ft 12 kts 37°
2026-04-27 01:01 25.10206 102.93781 6893 ft 11 kts 36°
2026-04-27 01:01 25.10276 102.93805 6893 ft 11 kts 338°
2026-04-27 01:02 25.10327 102.93745 6893 ft 11 kts 309°
2026-04-27 01:02 25.10373 102.93682 6893 ft 10 kts 309°
2026-04-27 01:02 25.10417 102.93619 6894 ft 10 kts 307°
2026-04-27 01:02 25.10458 102.93558 6894 ft 10 kts 302°
2026-04-27 01:03 25.10468 102.93485 6895 ft 10 kts 274°
2026-04-27 01:03 25.10473 102.93413 6896 ft 9 kts 275°
2026-04-27 01:03 25.10475 102.93395 6896 ft 2 kts 272°
2026-04-27 01:03 25.10450 102.93372 6896 ft 8 kts 192°
2026-04-27 01:04 25.10398 102.93366 6896 ft 1 kts 184°
2026-04-27 01:04 25.10390 102.93366 6896 ft 3 kts 184°
2026-04-27 01:04 25.10383 102.93365 6896 ft 0 kts 184°